Regional Weather Roundup
Issued by NWS State College, PA

Home | Current Version | Previous Version | Text Only | Print | Product List | Glossary Off
Versions: 1 2 3 4 5 6 7 8 9 10 11 12 13 14 15 16 17 18 19 20 21 22 23 24 25 26 27 28 29 30 31 32 33 34 35 36 37 38 39 40 41 42 43 44 45 46 47 48 49 50

000
ASUS41 KCTP 211603
RWRCTP

REGIONAL WEATHER ROUNDUP
NATIONAL WEATHER SERVICE STATE COLLEGE PA
1100 AM EST WED FEB 21 2018

Note: "fair" indicates few or no clouds below 12,000 feet with no
significant weather and/or obstructions to visibility.

* = STATION THAT DOES NOT REPORT PRECIPITATION /E.G. RAIN...SNOW...ETC/
    THUNDER OR FOG.

PAZ002>004-007>009-013>016-020>023-029>032-211700-
WESTERN PENNSYLVANIA

CITY           SKY/WX    TMP DP  RH WIND       PRES   REMARKS
ERIE           LGT RAIN  41  39  93 W9        30.32R FOG
MEADVILLE      CLOUDY    46  46 100 NW12      30.29R
FRANKLIN*      LGT RAIN  54  52  93 NW7       30.29R FOG
NEW CASTLE     LGT RAIN  56  56 100 NW5       30.30R
BEAVER COUNTY  CLOUDY    59  52  77 N10G16    30.28R
BUTLER*        CLOUDY    61  55  81 NW7G18    30.27R
PITTSBURGH INT CLOUDY    70  55  59 W16G24    30.23R
PITTSBURGH     CLOUDY    70  53  54 SW18G37   30.23R
INDIANA*       CLOUDY    72  57  60 W21G29    30.27R
LATROBE        CLOUDY    70  55  60 SW17G29   30.26R
WASHINGTON CO* CLOUDY    70  56  61 SW13G25   30.27R
$$

PAZ004>006-010>012-017>019-024>028-033>037-041-042-045-046-049>053-211700-
CENTRAL PENNSYLVANIA

CITY           SKY/WX    TMP DP  RH WIND       PRES   REMARKS
BRADFORD       CLOUDY    64  54  69 SW12G22   30.21R
DUBOIS         CLOUDY    67  53  61 SW17G35   30.22R
CLEARFIELD     CLOUDY    64  52  64 SW9       30.22R
JOHNSTOWN      CLOUDY    69  55  60 SW26G44   30.26S
ALTOONA        PTSUNNY   70  55  59 SW15G26   30.26S
STATE COLLEGE  PTSUNNY   68  54  60 S12G21    30.24S
WILLIAMSPORT   FAIR      56  50  80 CALM      30.22F
SELINSGROVE    FAIR      67  55  65 S9        30.25F
FT INDIANTOWN  PTSUNNY   57  54  88 CALM      30.28F
CAPITAL CITY   FAIR      73  58  59 VRB5      30.27F
HARRISBURG     FAIR      69  56  62 NE5       30.26F
YORK           FAIR      72  59  63 SW12G21   30.28F
$$

PAZ038>040-043-044-047-048-054-055-060>062-067>071-211700-
EASTERN PENNSYLVANIA

CITY           SKY/WX    TMP DP  RH WIND       PRES   REMARKS
SCRANTON       FAIR      68  55  63 SW10      30.24F
MOUNT POCONO   FAIR      64  54  69 SW15      30.28F
ALLENTOWN      FAIR      64  56  75 W7        30.29S
QUAKERTOWN*    SUNNY     70  61  73 SW9       30.29F
READING        CLOUDY    71  61  70 SW9       30.27F
LANCASTER      PTSUNNY   71  59  65 SW9       30.28F
COATESVILLE    FAIR      68 -40   1 S9        30.32F
POTTSTOWN      FAIR      69  58  67 SW13G20   30.31F
BLUE BELL      FAIR      68  61  77 SW12      30.31F
DOYLESTOWN     FAIR      70  59  68 SW12G20   30.27F
WILLOW GROVE   NOT AVBL
NORTH PHILA    PTSUNNY   71  61  70 SW14G23   30.32F
PHILADELPHIA   NOT AVBL
$$




USA.gov is the U.S. government's official web portal to all federal, state and local government web resources and services.